Location: Lake Arresoe
(56.0000°N, 12.5000°E)
Time: 18:18:47
(UTC+02:00)

CZ-3 Stage 3 - Pass Details

Date: 21 August 2020
Orbit: 426 x 34763 km, 31.1° (Epoch: 22 September)

Event Time Altitude Azimuth Distance (km) Brightness Sun altitude
Rises 03:50:51 0° 190° (S) 10,501 7.8 -14.5°
Reaches altitude 10° 03:57:57 10° 182° (S) 11,452 8.0 -13.8°
Maximum altitude 09:23:38 61° 178° (S) 34,566 11.4 27.8°
Drops below altitude 10° 13:05:44 10° 150° (SSE) 10,155 9.0 45.8°
Sets 13:11:00 0° 145° (SE) 9,663 8.7 45.9°
